Patterson, LA

10:35 PM CST on November 14, 2019 (GMT -0600)
Williams Memorial

Weather History for KPTN - September, 2019

Change the Weather History Date:

Monday, September 16, 2019

  Actual Average Record
Temperature  
Mean Temperature 82 °F -  
Max Temperature 86 °F 85 °F 93 °F (2018)
Min Temperature 77 °F 69 °F 60 °F (1999)
Cooling Degree Days 16    
Growing Degree Days 32 (Base 50)    
Moisture  
Dew Point 76 °F    
Average Humidity 90    
Maximum Humidity 96    
Minimum Humidity 74    
Precipitation  
Precipitation 0.48 in - - ()
Sea Level Pressure  
Sea Level Pressure 30.00 in    
Wind  
Wind Speed 8 mph (ENE)    
Max Wind Speed 26 mph    
Max Gust Speed 33 mph    
Visibility 8 miles    
Events Fog , Rain , Thunderstorm    
Averages and records for this station are not official NWS values.
T = Trace of Precipitation, MM = Missing Value Source: NWS Daily Summary

Daily Weather History Graph

Daily Weather History Graph

Search for Another Location

Airport or City:

Astronomy

Sep. 16, 2019 Rise Set
Actual Time 6:50 AM CDT 7:09 PM CDT
Civil Twilight 6:26 AM CDT 7:33 PM CDT
Nautical Twilight 5:58 AM CDT 8:01 PM CDT
Astronomical Twilight 5:30 AM CDT 8:29 PM CDT
Moon 8:53 PM CDT (9/16) 8:51 AM CDT (9/16)
Length of Visible Light 13h 06m
Length of Day
12h 19m
Waning Gibbous, 94% of the Moon is Illuminated
Sep 16
Waning Gibbous
Sep 21
Last Quarter
Sep 28
New
Oct 5
First Quarter
Oct 13
Full

Hourly Weather History & Observations

Time (CDT) Temp. Heat Index Dew Point Humidity Pressure Visibility Wind Dir Wind Speed Gust Speed Precip Events Conditions
12:56 AM 78.1 °F - 75.9 °F 93% 30.00 in 10.0 mi NNE 4.6 mph - N/A   Clear
1:56 AM 77.0 °F - 75.9 °F 96% 29.99 in 10.0 mi NE 4.6 mph - N/A   Clear
2:56 AM 77.0 °F - 75.0 °F 94% 29.98 in 10.0 mi NNE 4.6 mph - N/A   Clear
3:56 AM 77.0 °F - 75.0 °F 94% 29.99 in 10.0 mi NNE 3.5 mph - N/A   Clear
4:56 AM 77.0 °F - 75.0 °F 94% 29.98 in 10.0 mi NE 5.8 mph - N/A   Clear
5:56 AM 77.0 °F - 75.0 °F 94% 29.97 in 10.0 mi NE 6.9 mph - N/A   Clear
6:56 AM 77.0 °F - 75.0 °F 94% 29.99 in 10.0 mi NE 8.1 mph - N/A   Clear
7:56 AM 79.0 °F - 77.0 °F 94% 30.00 in 10.0 mi NE 9.2 mph - N/A   Clear
8:56 AM 81.0 °F 87.9 °F 77.0 °F 88% 30.01 in 10.0 mi NE 11.5 mph - N/A   Clear
9:56 AM 86.0 °F 96.9 °F 77.0 °F 74% 30.01 in 10.0 mi ENE 11.5 mph - N/A   Partly Cloudy
10:16 AM 84.2 °F 94.1 °F 77.0 °F 79% 30.02 in 10.0 mi ENE 16.1 mph 20.7 mph N/A   Mostly Cloudy
10:56 AM 84.9 °F 95.3 °F 77.0 °F 77% 30.03 in 10.0 mi East 26.5 mph 33.4 mph N/A   Overcast
11:02 AM 80.6 °F 86.2 °F 75.2 °F 84% 30.04 in 0.8 mi East 21.9 mph 33.4 mph 0.11 in   Haze
11:06 AM 78.8 °F - 75.2 °F 89% 30.04 in 0.2 mi East 12.7 mph 29.9 mph 0.31 in Fog Fog
11:13 AM 77.0 °F - 75.2 °F 94% 30.04 in 0.5 mi ENE 13.8 mph - 0.45 in Fog , Thunderstorm Fog
11:17 AM 77.0 °F - 75.2 °F 94% 30.04 in 1.0 mi ENE 11.5 mph - 0.46 in Thunderstorm Overcast
11:19 AM 77.0 °F - 75.2 °F 94% 30.04 in 2.0 mi ENE 11.5 mph - 0.46 in Thunderstorm Overcast
11:21 AM 77.0 °F - 75.2 °F 94% 30.04 in 3.0 mi ENE 12.7 mph - 0.46 in Rain , Thunderstorm Light Rain
11:27 AM 77.0 °F - 75.2 °F 94% 30.04 in 9.0 mi ENE 9.2 mph - 0.46 in Rain Light Rain
11:37 AM 77.0 °F - 75.2 °F 94% 30.04 in 10.0 mi ENE 8.1 mph - 0.47 in Rain , Thunderstorm Light Rain
11:56 AM 77.0 °F - 75.9 °F 96% 30.04 in 10.0 mi East 6.9 mph - 0.47 in   Overcast
12:56 PM 79.0 °F - 75.9 °F 90% 30.01 in 10.0 mi East 5.8 mph - 0.01 in   Scattered Clouds
1:56 PM 82.0 °F 90.2 °F 77.0 °F 85% 30.01 in 10.0 mi East 5.8 mph - N/A   Mostly Cloudy
2:13 PM 82.4 °F 90.9 °F 77.0 °F 84% 30.01 in 10.0 mi East 9.2 mph - N/A   Mostly Cloudy
2:56 PM 82.0 °F 89.4 °F 75.9 °F 82% 29.99 in 10.0 mi SE 10.4 mph - N/A   Scattered Clouds
3:56 PM 82.0 °F 89.4 °F 75.9 °F 82% 29.97 in 10.0 mi SE 8.1 mph 17.3 mph N/A   Scattered Clouds
4:56 PM 84.0 °F 92.6 °F 75.9 °F 76% 29.96 in 10.0 mi ESE 9.2 mph - N/A   Scattered Clouds
5:56 PM 81.0 °F 86.2 °F 73.9 °F 79% 29.97 in 10.0 mi ESE 5.8 mph - N/A   Clear
6:56 PM 80.1 °F 85.1 °F 75.0 °F 85% 29.97 in 10.0 mi ESE 4.6 mph - N/A   Clear
7:56 PM 79.0 °F - 75.9 °F 90% 29.96 in 10.0 mi ENE 6.9 mph - N/A   Clear
8:56 PM 78.1 °F - 75.9 °F 93% 29.99 in 10.0 mi East 4.6 mph - N/A   Partly Cloudy
9:56 PM 77.0 °F - 75.0 °F 94% 30.00 in 10.0 mi East 4.6 mph - N/A   Partly Cloudy
10:56 PM 77.0 °F - 75.0 °F 94% 30.00 in 10.0 mi ENE 5.8 mph - N/A   Clear
11:31 PM 77.0 °F - 75.2 °F 94% 29.99 in 10.0 mi ENE 4.6 mph - N/A   Mostly Cloudy
11:50 PM 77.0 °F - 75.2 °F 94% 29.98 in 10.0 mi NE 5.8 mph - N/A   Mostly Cloudy
11:56 PM 77.0 °F - 75.9 °F 96% 29.99 in 10.0 mi ENE 5.8 mph - N/A   Overcast